Wind_Speed
8 8 7 7 7 7 7 8 8 9 10 11 11 11 12 12 12 12 13 13 13 13 13 13 13 13 12 12 12 12 12 12 12 12 12 11 12 12 12 11 11 11 11
8 8 7 7 8 8 9 9 10 10 11 11 11 12 13 13 14 14 14 14 15 15 14 14 14 13 13 13 13 13 13 14 14 13 13 13 13 13 12 12 13 12 11
7 8 8 8 9 9 9 10 11 11 11 11 12 12 13 14 14 14 15 16 16 16 16 15 15 15 14 14 14 14 14 15 15 14 14 14 14 15 14 14 14 14 13
8 8 9 9 10 10 10 11 11 12 12 12 13 13 14 14 15 15 16 16 16 16 16 15 15 16 15 15 15 15 15 15 15 16 16 16 15 16 16 16 15 15 15
9 8 9 9 10 11 11 12 12 13 13 13 13 14 14 15 15 16 16 16 16 16 16 15 15 16 16 16 16 16 16 16 17 17 17 17 16 17 17 16 16 16 16
9 10 10 11 11 12 12 12 13 13 13 13 14 14 15 15 16 16 16 17 16 16 16 16 16 17 17 17 17 17 17 17 17 17 18 18 17 17 17 16 17 17 17
10 11 11 11 12 12 13 13 13 14 14 14 15 15 16 16 17 17 17 17 17 17 17 17 18 18 18 17 18 18 18 18 18 18 18 19 18 18 18 17 17 17 18
11 12 12 12 12 12 13 14 14 14 14 15 16 17 17 17 17 17 17 17 17 18 18 18 19 19 19 18 18 18 18 19 19 19 19 19 19 19 18 18 18 18 18
12 12 13 13 13 14 14 15 14 14 15 15 16 17 17 17 17 17 18 18 18 18 19 19 19 19 19 19 19 20 20 20 20 20 20 20 20 20 19 20 20 20 20
13 13 13 13 14 15 15 16 16 15 16 16 16 17 17 17 17 17 17 17 18 18 19 20 20 20 20 20 20 21 21 21 21 21 21 21 21 21 21 21 21 21 21
13 15 15 14 14 15 15 15 15 15 16 16 17 18 18 17 17 17 17 18 19 19 20 20 20 21 21 21 21 21 22 22 22 22 22 22 21 22 22 22 22 22 22
15 15 16 16 15 15 15 15 15 15 16 16 17 17 17 17 16 17 17 18 19 20 20 20 20 21 22 22 22 22 22 23 23 23 23 23 22 22 23 23 23 23 23
15 16 16 16 17 16 16 15 15 16 16 16 16 16 16 16 17 18 18 19 20 20 21 21 21 22 22 22 22 23 23 23 23 24 24 24 24 24 24 24 24 24 24
17 17 17 17 18 18 16 15 16 16 16 16 17 17 17 18 18 19 19 19 20 20 21 21 22 22 23 23 23 23 23 23 23 24 25 25 25 25 24 24 25 26 25
18 17 17 17 17 17 17 16 16 16 16 16 17 18 18 18 18 19 19 19 20 20 21 21 21 22 22 22 22 22 23 24 23 24 25 25 25 25 25 24 25 25 25
19 19 18 17 17 17 17 17 16 17 18 19 20 19 18 18 19 19 19 18 19 20 20 21 22 22 21 21 21 21 22 23 23 24 25 25 25 25 26 26 25 26 26
20 20 19 17 16 16 17 17 18 18 18 19 19 19 19 19 19 19 19 19 20 20 20 21 21 21 21 21 21 21 22 22 22 23 24 24 25 25 25 26 26 26 27
21 21 19 17 17 17 17 17 18 18 18 18 19 19 20 20 20 20 20 20 20 20 20 20 21 21 21 21 21 22 22 22 22 23 23 23 24 25 25 26 26 27 28
20 20 18 18 17 17 17 18 19 18 18 19 19 19 20 20 20 21 20 19 20 20 20 21 22 22 22 22 22 22 22 22 22 22 23 24 24 25 26 27 26 27 28
18 19 19 19 19 18 18 18 19 19 20 19 19 19 20 21 21 21 20 20 21 21 21 22 22 23 23 22 22 22 21 21 22 23 23 24 25 26 26 26 27 27 28
19 19 19 19 18 18 18 18 18 19 20 20 20 20 20 21 20 21 22 22 22 22 22 23 24 24 24 23 22 22 22 22 23 23 24 24 24 25 26 27 28 28 28
20 19 20 19 18 18 19 19 19 19 20 21 21 20 21 20 21 21 22 23 23 23 24 24 24 24 23 23 23 23 23 23 24 23 24 23 24 24 25 26 27 27 27
20 20 20 20 19 18 18 19 19 20 20 20 21 21 22 22 22 22 21 22 23 24 24 24 24 23 23 23 24 23 23 22 23 23 23 23 23 24 24 24 25 26 26
20 20 21 20 20 19 19 18 19 20 20 20 20 21 22 21 21 20 21 22 23 23 23 23 23 22 22 23 23 22 22 22 22 22 23 24 24 23 23 24 24 25 26
21 21 21 21 21 19 19 19 20 19 19 19 19 20 21 21 21 20 21 23 23 23 23 23 23 22 22 22 23 23 22 22 22 22 22 23 24 24 24 24 25 26 26
21 21 21 21 21 20 19 19 19 19 19 20 20 21 21 21 21 20 21 22 22 22 21 22 22 22 22 22 23 23 22 23 23 22 22 23 23 24 24 24 25 27 27
Wind_Direction
318 316 312 309 307 306 306 305 300 295 293 293 292 292 293 295 297 296 295 294 293 293 291 288 284 281 280 277 274 273 272 271 270 268 266 264 262 260 257 256 257 252 251
312 312 310 303 301 302 300 298 296 292 291 290 290 290 289 290 292 293 293 292 292 290 289 288 285 281 280 278 275 273 272 270 269 269 268 265 262 261 260 258 259 256 253
313 309 307 303 300 297 296 296 294 290 288 288 290 291 291 289 289 291 292 291 290 290 288 287 285 283 281 279 277 275 274 272 271 269 267 266 264 263 261 260 259 257 255
316 310 308 307 303 299 297 296 293 290 287 289 290 292 291 290 288 289 290 291 291 290 288 286 285 284 283 279 278 277 276 274 272 268 267 268 267 266 264 261 259 257 255
310 308 307 307 304 300 296 294 293 292 288 286 288 291 289 288 287 287 287 288 288 288 286 285 286 287 285 280 277 278 277 276 273 271 268 267 266 265 263 261 259 257 255
303 301 303 304 302 297 294 292 292 291 288 288 288 290 288 287 287 287 288 287 286 285 285 285 286 284 283 281 278 278 276 275 274 273 271 268 266 264 262 261 260 257 255
303 302 299 302 301 297 293 291 292 290 286 288 288 287 286 287 288 289 289 289 285 284 284 284 284 283 283 281 279 278 276 275 274 272 272 270 268 265 264 260 259 258 255
307 305 299 297 300 300 298 295 292 292 290 290 290 289 287 289 290 290 290 290 287 285 283 284 283 283 282 282 281 279 277 276 275 272 269 268 266 265 264 259 260 260 257
301 301 300 298 298 297 297 295 291 290 289 290 292 290 290 291 291 290 293 290 286 284 283 283 284 283 282 281 281 280 280 277 274 271 268 266 265 264 262 261 260 261 259
296 296 295 294 295 296 296 294 289 288 290 290 291 290 291 291 290 289 291 289 288 287 286 286 284 283 284 283 280 280 280 278 274 271 269 266 265 264 262 261 260 260 259
294 293 292 290 292 293 293 294 292 291 292 293 293 293 291 290 291 292 291 288 288 288 286 286 286 283 282 282 281 281 280 277 274 272 269 267 265 264 262 260 260 260 258
292 294 292 289 290 289 287 290 289 290 290 293 295 294 292 291 293 295 293 289 289 288 286 286 286 286 282 280 280 280 278 275 272 272 269 267 266 265 263 262 262 260 258
292 293 291 289 287 287 283 284 285 286 289 293 295 294 294 294 297 296 293 288 288 289 287 288 288 288 285 283 281 279 277 277 273 271 269 267 266 264 264 262 262 260 258
292 293 293 290 289 287 283 281 283 287 289 291 292 291 292 293 296 298 294 292 291 289 288 288 290 289 287 286 283 280 278 277 275 271 268 268 267 264 264 263 262 261 258
294 293 292 292 288 286 283 281 281 285 287 289 289 292 294 296 298 297 297 296 296 293 291 289 291 291 290 289 285 281 279 277 276 274 270 267 267 266 265 264 263 260 258
295 294 290 289 290 284 284 285 285 288 287 290 292 295 297 297 296 296 295 296 295 295 295 292 292 293 291 289 285 280 279 277 276 276 272 269 266 265 265 263 262 260 259
296 295 293 288 287 286 286 286 287 287 289 291 291 292 294 296 295 293 293 293 294 294 295 295 295 297 295 291 286 283 280 277 277 276 275 272 268 267 266 264 262 260 258
296 296 297 292 290 288 286 288 289 287 287 288 290 291 292 293 292 291 291 293 293 294 296 297 297 298 297 293 289 285 282 278 278 278 276 275 272 270 267 266 263 260 259
296 295 295 298 292 289 288 288 290 289 289 289 292 292 292 293 293 294 294 297 297 296 297 297 297 297 296 293 290 285 283 280 279 278 277 275 273 271 269 267 264 261 259
297 294 293 295 294 292 289 290 292 291 290 291 293 293 293 295 296 296 297 298 299 298 299 297 294 294 294 292 289 286 283 281 281 280 279 277 275 272 270 268 266 263 260
300 297 295 293 294 292 290 289 289 291 292 292 294 294 293 296 297 298 297 298 298 297 297 295 293 293 293 292 290 286 284 283 282 281 280 279 276 272 270 269 266 263 261
298 297 294 294 294 292 290 289 290 294 295 295 295 296 297 298 298 299 300 300 299 298 297 295 294 293 291 290 289 288 287 286 285 284 282 281 280 277 274 270 266 264 264
296 295 294 293 292 290 290 291 295 298 299 298 297 296 299 298 297 296 298 299 299 299 298 296 292 292 291 290 288 288 287 286 285 283 282 281 280 280 277 272 267 265 264
292 291 291 291 291 291 289 290 293 296 297 298 299 299 299 299 297 298 299 301 302 301 300 298 295 292 291 290 289 287 287 286 286 283 281 281 280 279 277 274 270 267 265
292 289 288 289 291 286 287 289 292 293 295 296 299 301 302 300 297 300 302 305 304 301 298 296 295 292 292 291 289 288 287 287 286 284 282 280 279 279 277 275 272 269 267
292 290 289 289 289 288 287 291 292 292 295 297 298 299 299 299 300 303 304 306 305 303 298 296 293 294 295 294 292 290 289 288 288 286 283 280 279 278 278 277 273 269 268
Height
5894 5894 5893 5893 5892 5892 5892 5891 5891 5890 5889 5888 5887 5887 5886 5885 5884 5883 5882 5881 5880 5879 5878 5877 5876 5875 5874 5874 5873 5872 5872 5871 5871 5871 5870 5870 5869 5869 5869 5869 5869 5869 5869
5893 5893 5892 5892 5891 5891 5890 5890 5889 5888 5887 5887 5886 5885 5884 5883 5882 5881 5880 5879 5878 5877 5875 5874 5873 5872 5872 5871 5871 5870 5869 5869 5868 5868 5868 5867 5867 5867 5867 5867 5867 5867 5867
5892 5891 5891 5890 5890 5889 5889 5888 5887 5886 5885 5884 5883 5882 5882 5881 5880 5879 5878 5876 5875 5874 5873 5872 5871 5870 5869 5868 5868 5867 5866 5866 5865 5865 5864 5864 5864 5864 5864 5864 5864 5864 5864
5891 5890 5889 5889 5888 5887 5887 5886 5885 5884 5883 5882 5881 5880 5879 5878 5877 5876 5875 5874 5873 5872 5870 5869 5868 5867 5866 5865 5865 5864 5863 5863 5862 5862 5861 5861 5861 5861 5861 5861 5861 5861 5862
5889 5889 5888 5887 5886 5885 5885 5884 5883 5882 5881 5880 5879 5878 5877 5876 5874 5873 5872 5871 5870 5869 5868 5867 5865 5864 5863 5862 5862 5861 5860 5859 5859 5858 5858 5858 5857 5857 5857 5857 5858 5858 5858
5887 5887 5886 5885 5884 5883 5882 5881 5880 5879 5878 5877 5876 5875 5874 5873 5871 5870 5869 5868 5867 5866 5865 5864 5862 5861 5860 5859 5858 5858 5857 5856 5855 5855 5854 5854 5854 5854 5854 5854 5854 5855 5855
5885 5884 5884 5883 5882 5881 5880 5879 5878 5876 5875 5874 5873 5872 5871 5870 5868 5867 5866 5865 5864 5862 5861 5860 5859 5858 5857 5855 5855 5854 5853 5852 5852 5851 5851 5851 5851 5851 5850 5850 5850 5851 5851
5882 5882 5881 5880 5879 5878 5877 5876 5875 5873 5872 5871 5870 5868 5867 5866 5865 5864 5862 5861 5860 5859 5857 5856 5855 5854 5853 5852 5851 5850 5849 5848 5848 5847 5847 5847 5847 5847 5846 5846 5846 5847 5847
5880 5880 5879 5878 5877 5876 5875 5873 5872 5871 5869 5868 5867 5865 5864 5863 5861 5860 5859 5857 5856 5854 5853 5852 5851 5850 5849 5848 5847 5846 5845 5844 5843 5843 5843 5843 5843 5843 5842 5842 5842 5842 5843
5878 5877 5877 5875 5874 5873 5872 5870 5869 5868 5866 5865 5863 5862 5860 5858 5857 5856 5855 5853 5852 5850 5849 5848 5847 5846 5844 5843 5842 5841 5840 5839 5839 5838 5838 5838 5838 5838 5837 5837 5837 5838 5838
5875 5874 5873 5872 5871 5870 5869 5867 5866 5865 5863 5861 5860 5858 5856 5854 5853 5852 5851 5849 5847 5846 5845 5843 5842 5840 5840 5839 5837 5836 5835 5835 5834 5833 5833 5833 5833 5833 5832 5832 5832 5833 5833
5872 5871 5869 5869 5867 5866 5865 5864 5863 5861 5860 5858 5856 5854 5852 5850 5849 5848 5846 5844 5843 5841 5840 5838 5837 5835 5834 5833 5832 5831 5830 5829 5828 5828 5828 5827 5827 5827 5827 5827 5827 5827 5828
5868 5867 5866 5865 5863 5862 5861 5860 5859 5858 5856 5854 5852 5850 5849 5847 5845 5843 5842 5840 5838 5836 5835 5834 5832 5831 5829 5828 5826 5825 5824 5823 5822 5822 5822 5821 5821 5821 5821 5820 5821 5821 5822
5864 5863 5861 5861 5860 5858 5856 5856 5855 5854 5852 5851 5849 5847 5845 5843 5842 5839 5837 5835 5833 5832 5830 5828 5827 5826 5824 5822 5821 5819 5818 5817 5817 5816 5816 5815 5815 5815 5815 5814 5815 5815 5815
5860 5858 5857 5856 5855 5854 5852 5852 5851 5849 5848 5846 5845 5843 5841 5839 5837 5835 5833 5831 5829 5827 5825 5823 5822 5821 5819 5817 5816 5814 5813 5812 5810 5810 5809 5809 5809 5809 5809 5809 5809 5809 5809
5856 5854 5853 5851 5850 5849 5848 5847 5845 5844 5843 5842 5840 5838 5837 5835 5833 5831 5828 5826 5824 5822 5820 5819 5817 5815 5813 5812 5810 5808 5807 5806 5804 5804 5803 5803 5803 5802 5802 5802 5802 5802 5803
5851 5850 5848 5847 5846 5845 5844 5843 5841 5840 5839 5837 5836 5834 5832 5830 5828 5826 5824 5822 5820 5818 5816 5814 5812 5810 5808 5806 5805 5803 5802 5800 5799 5798 5797 5797 5796 5796 5795 5795 5795 5795 5796
5847 5846 5844 5842 5842 5841 5840 5839 5837 5835 5834 5833 5831 5829 5827 5826 5823 5821 5819 5817 5815 5812 5810 5808 5806 5805 5803 5801 5799 5798 5796 5795 5793 5792 5791 5790 5789 5789 5789 5788 5788 5788 5789
5842 5841 5840 5838 5838 5837 5836 5834 5832 5830 5828 5828 5826 5824 5822 5821 5819 5817 5814 5812 5810 5807 5805 5803 5801 5799 5797 5795 5794 5792 5790 5788 5787 5786 5785 5784 5783 5782 5782 5782 5781 5781 5781
5838 5836 5836 5834 5833 5832 5831 5830 5828 5826 5824 5823 5822 5820 5818 5816 5814 5812 5810 5807 5804 5802 5800 5798 5796 5794 5792 5790 5787 5786 5784 5783 5781 5780 5779 5778 5776 5776 5775 5774 5774 5774 5774
5834 5833 5831 5829 5828 5827 5826 5825 5824 5822 5820 5819 5817 5815 5813 5811 5809 5807 5804 5802 5799 5797 5794 5792 5790 5787 5786 5783 5782 5780 5778 5777 5775 5774 5772 5771 5770 5769 5768 5767 5767 5766 5766
5830 5829 5827 5825 5824 5823 5822 5821 5819 5818 5816 5814 5812 5811 5808 5806 5803 5801 5798 5796 5794 5792 5789 5785 5783 5781 5779 5777 5776 5774 5772 5771 5769 5767 5766 5764 5763 5762 5761 5760 5759 5759 5758
5825 5824 5823 5822 5820 5819 5818 5816 5815 5813 5811 5810 5808 5806 5803 5801 5798 5795 5792 5790 5788 5785 5782 5779 5776 5775 5773 5771 5769 5768 5766 5765 5763 5761 5759 5758 5756 5755 5754 5752 5752 5751 5750
5821 5819 5818 5817 5816 5814 5813 5812 5811 5809 5807 5805 5803 5800 5798 5795 5793 5790 5787 5784 5781 5779 5776 5773 5771 5769 5767 5765 5763 5761 5760 5758 5756 5755 5753 5751 5749 5748 5747 5746 5745 5743 5743
5816 5814 5814 5812 5811 5809 5808 5806 5805 5803 5802 5800 5798 5795 5793 5790 5787 5785 5782 5779 5776 5773 5770 5768 5765 5763 5761 5759 5757 5755 5753 5751 5749 5748 5747 5744 5742 5741 5740 5738 5737 5736 5736
5811 5809 5808 5807 5806 5804 5802 5801 5799 5798 5797 5795 5793 5790 5787 5785 5782 5779 5776 5773 5771 5767 5764 5762 5759 5757 5755 5753 5751 5748 5746 5745 5743 5741 5739 5738 5736 5734 5732 5731 5730 5729 5728